EGPD

Aberdeen Dyce Airport

Airport
ICAO code
EGPD
IATA Code
ABZ
Summary
ICAO Region
EUR
ICAO Territory
Location

Dyce, Scotland

Serving
Aberdeen
Elevation
215 ft
Coordinates
57° 12' 1" N , 2° 12' 13" W
KCC
Metar
EGPD 192250Z AUTO 27005KT 9999 NCD 13/04 Q1018 NOSIG

Description

Domestic and international airport serving the City of Aberdeen and eastern Scotland and an important base for helicopters serving the offshore oil and gas industry.

Climatology

Temperate Marine climate/Oceanic climate (Köppen climate classification Cfb). Moderately cool summer and comparatively warm winter with a temperature range of only 14°C. Prevailing south-westerly winds from the Atlantic Ocean.

Runways

Designator Length Width Surface Rops
18/36 260 23 ASP Yes/Yes
5/23 577 46 CON Yes/Yes
14/32 660 23 ASP Yes/Yes
16/34 1829 46 ASP Yes/Yes

SKYbrary Partners:

Safety knowledge contributed by: